Wind_Speed
36 34 31 29 27 28 26 25 26 27 28 29 27 25 23 23 28 30 31 30 27 26 28 29 30 26 30 31 29 26 24 19 20 18 17 16 14 10 11 15 17 21 25 24
39 35 34 33 30 29 28 27 28 28 28 29 28 27 27 27 28 33 33 32 33 30 29 30 32 31 31 32 32 30 27 24 22 22 20 18 18 15 11 13 16 18 22 24
43 37 37 36 35 33 30 28 28 29 30 30 32 31 29 29 28 33 37 34 34 34 32 32 32 33 35 34 34 33 30 28 24 25 25 22 20 19 15 13 15 16 18 21
46 43 39 38 37 37 32 26 30 29 30 30 31 33 31 30 28 31 36 38 35 35 35 33 35 34 37 39 38 36 35 31 28 27 27 25 23 21 19 16 17 16 15 18
47 45 39 37 37 37 33 30 29 31 29 32 33 33 31 29 30 31 35 38 37 38 37 36 36 38 37 39 40 38 37 33 31 28 29 29 25 23 23 19 18 17 16 16
46 44 38 35 35 36 37 33 32 31 31 31 33 33 33 32 32 33 35 38 40 40 40 39 35 38 39 40 40 41 39 37 33 31 31 31 26 25 26 22 20 19 18 15
45 41 39 36 34 35 39 37 33 32 32 34 34 34 35 34 34 33 34 37 40 39 43 46 44 40 41 41 40 43 42 39 38 34 32 32 26 26 25 25 23 21 19 16
44 42 38 35 35 36 39 39 36 34 33 35 37 37 36 36 35 36 35 38 40 41 42 45 49 45 46 42 41 42 44 42 40 38 34 31 26 27 27 26 22 21 19 17
45 45 41 37 37 37 39 40 37 36 36 36 39 38 37 36 35 37 35 36 39 40 42 45 48 49 46 47 43 40 42 44 43 39 37 34 26 26 28 27 23 23 21 18
49 50 45 43 39 40 42 43 40 39 39 39 40 39 40 40 38 38 36 36 38 41 43 46 47 48 49 48 49 40 40 43 45 42 41 36 26 25 29 26 26 25 22 20
53 53 51 48 45 43 48 49 45 46 44 43 42 42 43 43 42 39 37 39 39 40 43 45 46 49 50 50 47 46 45 44 45 45 45 37 31 26 29 29 28 26 24 22
60 57 57 55 52 50 51 52 51 51 50 46 44 44 45 45 46 43 41 37 37 40 41 44 47 48 50 50 49 45 47 47 45 45 41 40 39 31 31 30 30 28 26 24
67 62 62 60 58 56 56 57 57 56 55 51 50 46 47 47 47 46 43 38 38 41 41 42 48 50 50 51 51 50 47 48 50 48 43 41 41 37 35 33 33 31 29 27
71 69 66 64 61 61 60 60 58 60 56 53 48 47 47 46 48 46 45 41 39 39 42 44 44 48 51 51 52 51 48 48 50 50 44 42 43 44 41 38 35 31 32 29
71 70 68 66 64 63 62 61 59 60 57 51 47 48 46 44 44 45 45 41 41 39 43 45 44 45 50 50 51 50 48 44 51 49 45 45 45 49 48 42 39 35 33 32
64 65 65 64 64 64 62 60 58 57 50 51 49 48 42 43 41 39 41 43 41 41 42 43 42 42 47 50 48 45 47 42 48 53 46 49 48 49 49 48 45 40 36 34
62 62 62 63 64 64 61 60 54 54 52 51 49 49 41 34 35 38 38 39 41 41 42 44 42 40 46 50 48 34 44 51 44 55 53 47 49 50 50 50 50 43 40 38
58 58 59 61 61 59 56 56 54 53 53 51 54 47 38 34 33 35 37 38 39 42 42 40 41 42 45 51 34 34 38 46 47 43 55 57 48 52 51 53 53 49 46 43
57 57 57 58 57 56 54 53 52 51 52 53 48 39 35 38 38 37 37 37 39 41 44 41 42 40 42 36 36 36 40 42 45 48 52 56 57 53 53 54 55 52 50 49
54 53 54 55 53 51 48 48 49 50 48 46 38 34 34 37 37 38 37 37 38 39 38 40 39 32 33 40 41 43 45 49 46 48 54 53 57 58 53 54 55 56 54 56
50 49 52 54 52 50 48 49 50 47 45 39 34 33 32 34 37 37 37 37 36 35 35 38 32 29 35 38 41 45 47 49 49 45 49 52 51 63 60 57 58 58 58 59
46 47 46 47 49 49 48 47 46 41 38 35 30 30 31 34 37 35 33 33 34 34 33 33 28 31 35 39 41 44 47 48 49 49 43 43 47 51 64 61 60 61 60 61
46 47 45 45 43 43 42 38 34 30 26 27 29 30 31 32 33 31 31 32 32 33 33 31 27 31 36 38 37 40 44 47 48 52 52 46 43 44 56 63 60 60 61 61
49 48 46 41 39 36 32 30 29 27 27 27 27 26 27 28 29 29 30 31 34 33 31 30 34 32 37 39 36 36 37 42 45 46 49 50 42 44 46 59 61 59 60 60
50 46 41 36 31 29 28 28 26 27 27 26 24 25 25 27 28 29 31 33 33 30 31 36 37 34 37 40 37 37 34 37 40 41 47 49 45 39 44 49 61 61 58 59
49 44 35 32 31 28 27 27 27 28 27 25 26 26 25 27 30 31 34 33 33 31 34 37 37 37 38 39 35 36 35 38 36 37 43 46 48 43 42 46 51 61 59 59
48 40 34 32 32 32 31 29 28 28 28 26 26 27 28 28 31 33 31 31 33 32 37 38 37 35 36 35 34 34 33 35 39 40 42 42 44 45 42 47 47 53 58 54
Wind_Direction
276 280 278 279 282 283 281 281 280 280 275 273 276 274 272 262 257 255 254 246 248 245 244 247 241 233 233 235 236 238 240 239 236 233 239 249 264 291 324 341 355 6 5 5
275 271 272 272 278 275 275 276 275 274 276 275 274 269 270 266 259 256 252 250 247 249 244 244 246 240 232 233 237 239 240 240 237 236 234 244 255 271 298 324 339 351 3 2
273 267 266 270 272 270 269 269 275 273 274 274 271 266 267 269 260 255 254 249 247 247 250 247 243 245 240 233 235 238 237 240 240 238 238 240 249 262 279 305 322 338 352 358
270 272 266 266 268 265 265 266 273 272 272 270 267 263 264 268 267 260 255 252 248 248 251 251 246 241 246 241 235 236 238 239 242 243 240 241 244 255 270 287 304 318 334 352
267 269 266 261 265 266 266 266 268 271 273 266 264 262 263 263 264 260 256 256 248 244 248 250 245 240 240 245 243 240 239 237 239 242 245 242 244 253 264 275 288 303 316 334
260 264 258 251 255 260 263 265 267 266 269 264 261 258 258 260 262 267 261 255 252 247 245 246 248 249 243 243 244 244 243 242 237 239 246 247 242 248 258 266 276 289 298 314
259 253 252 250 249 256 259 264 266 267 269 264 258 256 255 259 265 267 263 256 254 249 245 246 248 250 250 244 243 244 243 244 244 238 243 248 246 246 254 260 270 278 285 296
254 251 248 249 249 254 257 263 265 264 266 264 262 259 256 257 260 266 265 259 255 249 246 247 248 249 249 248 245 245 246 243 247 243 241 245 247 248 252 257 262 270 275 283
252 246 251 248 249 251 253 261 263 264 264 264 262 259 254 254 258 266 269 262 257 254 248 247 247 248 249 249 247 245 247 247 244 245 245 241 243 249 254 255 258 264 268 271
252 249 250 250 249 252 251 255 258 263 264 258 256 255 253 250 250 259 266 267 263 259 252 248 247 247 248 248 247 249 248 248 248 244 246 239 245 247 249 253 252 259 264 268
251 249 250 249 249 251 251 252 257 256 258 258 254 253 249 249 249 254 260 261 263 263 259 254 250 248 247 249 247 251 251 248 247 246 243 244 249 249 247 248 250 253 259 263
249 250 248 249 249 249 249 252 255 257 254 255 255 252 250 248 249 252 255 260 263 264 263 260 255 251 247 247 247 248 250 247 247 246 243 243 247 243 245 245 245 249 255 259
249 244 247 247 248 248 248 250 252 254 252 251 253 253 253 250 250 251 255 258 261 262 262 262 260 254 252 249 246 248 250 246 244 244 240 239 242 241 242 243 244 246 250 254
244 244 244 243 246 247 247 248 250 252 251 252 254 252 254 251 251 253 255 256 257 263 267 268 265 263 256 252 248 244 247 247 242 243 241 239 239 240 239 240 243 242 245 251
238 241 242 243 243 244 245 247 246 248 249 250 251 252 251 251 252 251 251 255 256 258 262 267 268 265 262 257 250 243 242 249 242 245 245 240 236 241 242 241 243 243 243 247
238 239 239 240 242 243 243 242 243 244 246 247 246 248 247 250 250 252 253 253 255 256 261 264 266 266 264 265 261 247 240 247 243 238 245 240 235 236 241 241 242 243 244 244
236 237 238 239 240 242 239 238 238 240 242 244 243 245 246 249 253 252 250 250 254 258 258 261 264 265 267 269 266 257 247 244 253 241 238 239 239 237 238 239 241 240 240 243
230 232 234 236 238 238 236 235 237 240 242 243 244 246 253 253 254 254 254 253 252 256 259 260 262 263 267 270 284 265 253 242 243 247 243 236 236 237 236 236 238 238 240 241
223 226 230 233 233 233 233 234 237 239 242 243 245 252 254 252 253 255 256 257 259 258 259 262 263 265 272 287 277 259 254 251 245 247 244 242 232 230 234 235 236 238 239 241
219 222 226 230 233 233 233 233 237 238 241 244 252 253 253 253 254 255 258 258 256 257 258 260 263 271 273 269 266 259 251 248 249 250 244 247 235 232 231 232 233 236 235 239
220 222 229 231 233 235 234 234 235 238 239 245 247 248 252 254 257 257 259 259 257 258 258 261 267 272 270 269 264 262 257 250 243 247 242 247 247 231 232 230 231 233 234 237
223 226 229 230 232 235 236 235 235 238 242 245 246 247 247 251 254 257 257 258 257 260 262 266 274 273 273 270 268 265 259 252 245 240 241 242 244 241 236 235 233 232 233 236
221 223 225 226 228 227 228 230 236 238 234 234 238 243 247 250 254 258 263 262 263 265 268 272 279 280 277 273 267 261 259 253 246 242 246 248 245 242 234 235 238 236 236 236
219 222 225 224 227 229 229 225 222 225 231 238 242 245 250 253 259 262 265 265 268 272 277 278 278 278 276 274 267 258 265 255 245 241 243 248 248 241 241 233 235 238 238 240
217 219 223 225 228 223 222 222 225 229 235 242 250 253 255 260 265 266 272 271 274 283 284 280 280 281 276 271 266 255 254 243 243 236 234 240 242 244 241 239 234 235 239 240
214 216 221 222 219 221 223 231 237 243 248 251 256 259 264 268 272 275 276 277 278 278 278 278 278 277 274 271 267 254 252 238 238 235 231 234 237 244 243 243 238 233 235 239
216 216 214 224 223 224 233 239 243 249 254 257 260 264 265 271 273 276 276 274 275 281 281 278 275 276 271 269 270 262 255 241 232 229 228 234 240 244 248 242 241 239 234 238
Height
5800 5799 5800 5798 5799 5798 5796 5795 5795 5795 5795 5797 5797 5799 5798 5799 5798 5800 5802 5803 5806 5808 5809 5812 5814 5816 5818 5822 5825 5827 5830 5832 5833 5834 5835 5836 5835 5834 5832 5829 5827 5821 5817 5813
5788 5789 5789 5790 5789 5789 5788 5788 5788 5788 5788 5790 5791 5791 5792 5792 5792 5793 5795 5797 5799 5802 5803 5806 5809 5811 5812 5815 5818 5821 5824 5826 5828 5830 5831 5832 5831 5831 5829 5827 5824 5821 5816 5813
5778 5780 5780 5780 5780 5779 5779 5780 5780 5781 5780 5782 5783 5784 5785 5785 5785 5786 5787 5790 5792 5793 5797 5800 5802 5806 5807 5808 5810 5813 5816 5820 5822 5824 5825 5826 5827 5827 5826 5824 5822 5820 5816 5811
5768 5770 5771 5771 5771 5771 5772 5770 5772 5772 5772 5773 5774 5775 5778 5778 5778 5779 5779 5781 5785 5787 5789 5793 5795 5798 5801 5802 5803 5805 5809 5813 5816 5817 5819 5821 5822 5822 5821 5821 5819 5817 5815 5810
5756 5758 5759 5761 5762 5764 5764 5763 5764 5763 5763 5764 5765 5767 5770 5770 5769 5771 5773 5774 5776 5777 5781 5784 5786 5787 5791 5795 5798 5799 5801 5805 5808 5811 5812 5814 5817 5817 5817 5817 5816 5814 5812 5808
5742 5745 5747 5749 5751 5754 5755 5754 5753 5753 5755 5754 5756 5759 5760 5761 5760 5762 5764 5766 5766 5769 5774 5774 5778 5781 5783 5786 5790 5792 5794 5797 5800 5804 5804 5806 5811 5812 5811 5812 5811 5810 5808 5806
5730 5733 5736 5737 5740 5742 5744 5744 5743 5744 5746 5746 5748 5749 5751 5753 5753 5754 5755 5756 5757 5761 5762 5765 5768 5771 5774 5777 5781 5784 5787 5790 5792 5796 5798 5799 5804 5805 5806 5806 5806 5805 5804 5802
5718 5721 5724 5726 5728 5731 5733 5734 5735 5734 5735 5737 5739 5740 5741 5743 5745 5746 5746 5747 5748 5750 5751 5754 5757 5761 5765 5769 5771 5775 5779 5782 5784 5786 5790 5793 5798 5798 5799 5799 5801 5799 5798 5798
5704 5708 5712 5714 5717 5720 5721 5723 5724 5724 5725 5727 5728 5730 5732 5733 5736 5737 5738 5737 5738 5740 5742 5743 5745 5750 5754 5759 5762 5766 5770 5773 5776 5779 5781 5785 5789 5791 5791 5792 5794 5793 5793 5792
5691 5696 5699 5701 5706 5710 5710 5712 5713 5714 5714 5715 5717 5719 5721 5723 5725 5727 5729 5729 5729 5730 5731 5732 5735 5739 5743 5746 5752 5759 5760 5763 5765 5770 5771 5777 5783 5782 5782 5785 5788 5786 5786 5786
5676 5680 5685 5688 5692 5697 5699 5700 5701 5703 5703 5703 5705 5707 5710 5712 5714 5716 5719 5719 5719 5720 5721 5723 5726 5727 5732 5734 5740 5746 5752 5753 5756 5759 5763 5771 5774 5775 5775 5776 5777 5778 5779 5779
5658 5663 5669 5674 5678 5682 5685 5688 5690 5691 5691 5693 5693 5696 5698 5700 5702 5705 5706 5709 5711 5709 5712 5713 5714 5716 5719 5724 5727 5734 5738 5744 5745 5750 5756 5760 5761 5765 5765 5766 5768 5770 5771 5772
5641 5644 5650 5656 5663 5668 5672 5674 5676 5678 5680 5680 5681 5684 5686 5688 5691 5693 5696 5698 5699 5698 5699 5701 5702 5703 5708 5711 5716 5721 5726 5730 5733 5737 5747 5749 5752 5754 5755 5756 5758 5762 5763 5764
5622 5628 5631 5637 5645 5652 5656 5660 5662 5665 5667 5668 5672 5673 5674 5675 5679 5682 5684 5686 5687 5689 5689 5690 5692 5694 5695 5698 5702 5706 5713 5718 5722 5727 5736 5738 5741 5742 5743 5746 5749 5752 5754 5756
5603 5610 5616 5621 5629 5634 5640 5646 5648 5651 5654 5657 5659 5660 5662 5663 5666 5670 5672 5675 5675 5675 5677 5677 5680 5681 5682 5684 5687 5694 5702 5707 5709 5715 5722 5723 5729 5730 5734 5738 5740 5743 5745 5746
5587 5594 5600 5606 5614 5620 5625 5631 5635 5639 5643 5644 5646 5649 5651 5651 5654 5659 5662 5663 5664 5664 5666 5668 5667 5670 5671 5670 5675 5688 5689 5693 5696 5699 5704 5710 5714 5717 5722 5727 5729 5732 5736 5737
5572 5579 5584 5592 5599 5606 5610 5617 5622 5625 5628 5631 5633 5636 5638 5642 5644 5646 5648 5650 5650 5651 5653 5655 5657 5660 5658 5659 5662 5683 5678 5680 5682 5684 5688 5696 5702 5705 5707 5712 5716 5721 5724 5727
5557 5563 5570 5577 5585 5591 5597 5604 5608 5612 5616 5618 5620 5624 5629 5631 5633 5635 5636 5637 5638 5640 5642 5645 5647 5647 5645 5644 5665 5666 5663 5663 5664 5669 5669 5675 5681 5686 5692 5697 5702 5708 5712 5714
5541 5548 5556 5565 5570 5577 5583 5589 5595 5599 5603 5606 5610 5613 5618 5619 5621 5623 5625 5626 5626 5629 5631 5633 5635 5635 5636 5644 5645 5644 5643 5644 5649 5649 5648 5652 5663 5670 5675 5680 5687 5693 5698 5700
5528 5536 5542 5551 5558 5564 5570 5574 5581 5586 5590 5595 5601 5604 5605 5608 5609 5611 5615 5616 5615 5618 5622 5619 5622 5627 5628 5624 5625 5626 5626 5628 5631 5633 5640 5640 5645 5652 5659 5663 5669 5675 5683 5685
5515 5524 5530 5539 5544 5550 5556 5561 5568 5574 5580 5586 5590 5591 5594 5595 5597 5599 5601 5603 5604 5606 5610 5608 5611 5614 5609 5610 5611 5610 5612 5613 5620 5621 5625 5629 5634 5639 5644 5649 5653 5660 5666 5670
5507 5514 5519 5527 5532 5538 5544 5548 5558 5566 5571 5577 5579 5581 5581 5582 5584 5585 5589 5592 5593 5595 5597 5596 5598 5598 5595 5595 5596 5596 5597 5599 5604 5608 5610 5614 5618 5625 5633 5637 5641 5645 5650 5655
5495 5501 5508 5515 5519 5524 5532 5542 5551 5556 5559 5562 5565 5568 5570 5572 5574 5576 5578 5581 5582 5583 5582 5584 5585 5582 5581 5581 5582 5582 5581 5584 5588 5593 5596 5600 5604 5609 5614 5621 5628 5633 5638 5643
5485 5493 5499 5504 5511 5521 5529 5535 5539 5543 5547 5551 5555 5557 5560 5562 5563 5564 5568 5570 5570 5570 5571 5573 5569 5567 5567 5566 5568 5570 5570 5570 5573 5578 5581 5586 5591 5595 5599 5605 5612 5620 5627 5630
5475 5484 5490 5501 5508 5514 5519 5525 5530 5534 5536 5541 5544 5548 5550 5550 5551 5554 5557 5558 5558 5558 5559 5556 5554 5553 5554 5553 5555 5556 5557 5557 5560 5564 5567 5573 5579 5582 5585 5588 5595 5604 5611 5617
5468 5477 5488 5495 5500 5506 5510 5515 5521 5525 5527 5530 5534 5537 5537 5539 5542 5544 5545 5547 5547 5545 5544 5545 5544 5541 5541 5540 5541 5543 5545 5546 5549 5552 5555 5559 5566 5570 5572 5575 5581 5587 5595 5602
5464 5475 5482 5487 5492 5496 5500 5506 5511 5514 5518 5521 5523 5527 5529 5530 5531 5533 5533 5535 5533 5533 5535 5536 5533 5531 5530 5530 5530 5532 5533 5535 5539 5542 5545 5549 5553 5559 5562 5565 5568 5574 5581 5587